Regional Weather Roundup
Issued by NWS

Home | Current Version | Previous Version | Graphics & Text | Print | Product List | Glossary On
Versions: 1 2 3 4 5 6 7 8 9 10 11 12 13 14 15 16 17 18 19 20 21 22 23 24 25 26 27 28 29 30 31 32 33 34 35 36 37 38 39 40 41 42 43 44 45 46 47 48 49 50
000
ASUS43 KLOT 290658
RWRIL

ILLINOIS REGIONAL WEATHER ROUNDUP
NATIONAL WEATHER SERVICE CHICAGO/ROMEOVILLE IL
200 AM CDT TUE JUL 29 2014

NOTE: "FAIR" INDICATES FEW OR NO CLOUDS BELOW 12,000 FEET WITH NO
SIGNIFICANT WEATHER AND/OR OBSTRUCTIONS TO VISIBILITY.

* THESE STATIONS ARE NOT UNDER NWS QUALITY CONTROL. THEY ALSO MAY NOT
  REPORT WEATHER SUCH AS PRECIPITATION OR FOG.

ILZ001-002-007-009-015-016-024-290800-
NORTHWEST ILLINOIS

CITY           SKY/WX    TMP DP  RH WIND       PRES   REMARKS
MOLINE         CLEAR     55  52  89 CALM      30.11F
$$

ILZ003-004-008-010-011-017-018-290800-
NORTH CENTRAL ILLINOIS

CITY           SKY/WX    TMP DP  RH WIND       PRES   REMARKS
ROCKFORD       NOT AVBL
$$

ILZ005-006-012>014-019>023-290800-
NORTHEAST ILLINOIS

CITY           SKY/WX    TMP DP  RH WIND       PRES   REMARKS
CHICAGO-OHARE  PTCLDY    64  51  62 NW8       30.04F
CHICAGO-MIDWAY PTCLDY    64  53  67 CALM      30.04F
AURORA         MOCLDY    57  53  86 W6        30.06F
WAUKEGAN       CLEAR     53  50  89 CALM      30.04S
DUPAGE AIRPORT CLEAR     62  53  72 NW7       30.04F
WHEELING       CLEAR     61  53  75 CALM      30.05F
NORTHERLY ISL    N/A     61  53  75 S3          N/A
$$

LMZ740>746-290800-
SOUTHERN LAKE MICHIGAN

STATION/POSITION SKY/WX   TEMP    WIND        PRES    VSBY  WAVE
                          AIR SEA DIR/SP/G                  HT/PER
                          (F)     (DEG/KT/KT) (MB)    (MI)  (FT/S)
SOUTHERN BUOY              60 60  250/  6/  8 1017.2F         2/ 6
WAUKEGAN HARBOR            61     210/  3/  5   N/A
HARRISON CRIB              62     150/  5/  7   N/A
BURNHAM HARBOR             61     160/  4/  4   N/A
CALUMET HARBOR             62     170/  2/  2 1016.2F
MICHIGAN CITY              63     340/  5/  6   N/A
MICHIGAN CITY 6N           64 67  320/  2/  4   N/A           3/ 6
ST. JOSEPH                 62 66  340/  4/  6   N/A           3/ 5
$$

ILZ025>027-034>036-040-047-049-050-058-095>099-290800-
WEST-CENTRAL ILLINOIS

CITY           SKY/WX    TMP DP  RH WIND       PRES   REMARKS
$$

ILZ028>032-037-038-041>044-048-051>054-059>061-290800-
CENTRAL ILLINOIS

CITY           SKY/WX    TMP DP  RH WIND       PRES   REMARKS
PEORIA         NOT AVBL
SPRINGFIELD    CLEAR     54  52  93 CALM      30.12S
TAYLORVILLE    NOT AVBL
$$

ILZ033-039-045-046-055>057-062-063-290800-
EAST-CENTRAL ILLINOIS

CITY           SKY/WX    TMP DP  RH WIND       PRES   REMARKS
CHAMPAIGN      CLEAR     54  52  93 W7        30.08F
MATTOON        CLEAR     55  50  83 W6        30.08F
$$

ILZ079-100>102-290800-
SOUTHWEST ILLINOIS

CITY           SKY/WX    TMP DP  RH WIND       PRES   REMARKS
CAHOKIA*       CLEAR     56  53  90 CALM      30.12F
$$

ILZ064>066-069>071-074>076-080>082-084>086-088>090-092>094-290800-
SOUTH-CENTRAL ILLINOIS

CITY           SKY/WX    TMP DP  RH WIND       PRES   REMARKS
CARBONDALE     CLEAR     59  55  87 N5        30.11R
$$

ILZ067-068-072-073-078-083-087-091-290800-
SOUTHEAST ILLINOIS

CITY           SKY/WX    TMP DP  RH WIND       PRES   REMARKS
LAWRENCEVILLE  CLEAR     55  52  89 NW5       30.08F
$$

ABBREVIATIONS USED IN REMARKS
   TC - TEMPERATURE IN CELSIUS
  WCI - WIND CHILL INDEX
   HX - HEAT INDEX
  VSB - VISIBILITY
$$




USA.gov is the U.S. government's official web portal to all federal, state and local government web resources and services.